Location: Buch am Rannenberg
(48.6989°N, 10.6399°E)
Time: 07:45:30
(UTC+00:00)

Helios 1B rocket - Pass Details

Date: 07 June 2020
Orbit: 575 x 583 km, 98.1° (Epoch: 04 July)

Event Time Altitude Azimuth Distance (km) Brightness Sun altitude
Rises 00:42:20 0° 5° (N) 2,818 7.5 -16.0°
Reaches altitude 10° 00:44:42 10° 354° (N) 1,914 6.1 -15.8°
Maximum altitude 00:48:16 29° 294° (WNW) 1,095 3.8 -15.6°
Enters shadow 00:50:29 18° 248° (WSW) 1,461 4.1 -15.5°
